IRIDIUM 106 1 41917U 17003A 26034.34923904 .00000043 00000+0 82511-5 0 9990 2 41917 86.4020 144.4964 0001867 86.5823 273.5587 14.34217691474022 IRIDIUM 103 1 41918U 17003B 26034.33656258 .00000338 00000+0 11359-3 0 9992 2 41918 86.4019 144.4021 0002485 95.0511 265.0969 14.34215620474043 IRIDIUM 109 1 41919U 17003C 26034.34289750 .00000121 00000+0 36231-4 0 9990 2 41919 86.4021 144.4567 0002077 95.9237 264.2196 14.34217013474011 IRIDIUM 102 1 41920U 17003D 26034.31118196 .00000299 00000+0 99529-4 0 9999 2 41920 86.4022 144.3966 0002055 99.1724 260.9705 14.34219377474091 IRIDIUM 105 1 41921U 17003E 26034.49053287 .00000353 00000+0 11867-3 0 9997 2 41921 86.3974 112.8001 0002190 98.1738 261.9706 14.34400489475977 IRIDIUM 104 1 41922U 17003F 26034.39363880 .00000347 00000+0 11676-3 0 9991 2 41922 86.4023 144.4027 0002418 101.9992 258.1475 14.34217826474095 IRIDIUM 114 1 41923U 17003G 26034.33021100 .00000135 00000+0 41146-4 0 9993 2 41923 86.4023 144.4129 0002358 98.8383 261.3080 14.34218512474068 IRIDIUM 108 1 41924U 17003H 26034.49803772 .00000083 00000+0 22666-4 0 9992 2 41924 86.3968 112.6842 0002045 100.4221 259.7205 14.34216280475947 IRIDIUM 112 1 41925U 17003J 26034.38729502 .00000349 00000+0 11744-3 0 9998 2 41925 86.4017 144.2374 0002176 100.5794 259.5647 14.34218695474091 IRIDIUM 111 1 41926U 17003K 26034.30484289 .00000318 00000+0 10639-3 0 9999 2 41926 86.4019 144.3393 0002154 96.2321 263.9120 14.34217484474066 IRIDIUM 113 1 42803U 17039A 26034.49411137 .00000233 00000+0 76242-4 0 9994 2 42803 86.3975 18.0333 0002340 90.0060 270.1404 14.34218171452022 IRIDIUM 123 1 42804U 17039B 26034.46582109 .00000047 00000+0 98652-5 0 9993 2 42804 86.3927 49.5214 0002372 85.6659 274.4808 14.34217528450787 IRIDIUM 120 1 42805U 17039C 26034.48776864 .00000285 00000+0 94799-4 0 9990 2 42805 86.3960 17.8362 0001877 82.8310 277.3099 14.34217538452012 IRIDIUM 115 1 42806U 17039D 26034.44872695 .00000429 00000+0 12156-3 0 9992 2 42806 86.4502 17.9623 0002329 77.1405 283.0056 14.43277734454970 IRIDIUM 118 1 42807U 17039E 26034.49753335 .00000038 00000+0 66482-5 0 9996 2 42807 86.3928 49.5068 0002315 92.4107 267.7354 14.34217336450787 IRIDIUM 117 1 42808U 17039F 26034.51656132 .00000055 00000+0 12711-4 0 9991 2 42808 86.3925 49.4576 0002307 87.2939 272.8520 14.34217438450813 IRIDIUM 126 1 42809U 17039G 26034.47216234 .00000014 00000+0 -18910-5 0 9996 2 42809 86.3924 49.5254 0002268 90.0879 270.0577 14.34217112450785 IRIDIUM 124 1 42810U 17039H 26034.38253086 .00000456 00000+0 12946-3 0 9994 2 42810 86.4531 346.2998 0002364 84.0000 276.1470 14.43277007455817 IRIDIUM 128 1 42811U 17039J 26034.39314120 .00000305 00000+0 10188-3 0 9992 2 42811 86.3925 81.1039 0002020 89.2109 270.9319 14.34215162450803 IRIDIUM 121 1 42812U 17039K 26034.49118728 .00000154 00000+0 47751-4 0 9999 2 42812 86.3928 49.5441 0002114 91.4063 268.7375 14.34218937450664 IRIDIUM 133 1 42955U 17061A 26034.49461442 .00000262 00000+0 86434-4 0 9997 2 42955 86.3925 81.1759 0002242 92.2550 267.8902 14.34218590435614 IRIDIUM 100 1 42956U 17061B 26034.48827396 .00000277 00000+0 91675-4 0 9990 2 42956 86.3923 81.1003 0002198 93.1397 267.0051 14.34218299435617 IRIDIUM 122 1 42957U 17061C 26034.17748609 .00000069 00000+0 17609-4 0 9990 2 42957 86.3926 81.2303 0002306 91.8530 268.2930 14.34217654435578 IRIDIUM 129 1 42958U 17061D 26034.48192968 .00000213 00000+0 69033-4 0 9995 2 42958 86.3923 81.1683 0002394 102.1180 258.0284 14.34218377435639 IRIDIUM 119 1 42959U 17061E 26034.51998587 .00000145 00000+0 44875-4 0 9992 2 42959 86.3925 81.1478 0002393 95.4406 264.7063 14.34217936435659 IRIDIUM 107 1 42960U 17061F 26034.19017115 .00000242 00000+0 79187-4 0 9999 2 42960 86.3927 81.3062 0002397 85.4702 274.6767 14.34217946435614 IRIDIUM 132 1 42961U 17061G 26034.40581786 .00000223 00000+0 72410-4 0 9995 2 42961 86.3923 81.1961 0002235 90.6876 269.4576 14.34218476435640 IRIDIUM 136 1 42962U 17061H 26034.50729954 .00000257 00000+0 84635-4 0 9997 2 42962 86.3925 81.1599 0002361 92.6986 267.4480 14.34219883435672 IRIDIUM 139 1 42963U 17061J 26034.51364276 .00000134 00000+0 40810-4 0 9992 2 42963 86.3927 81.2171 0002177 90.7905 269.3540 14.34217346435688 IRIDIUM 125 1 42964U 17061K 26034.50095557 .00000202 00000+0 65197-4 0 9996 2 42964 86.3928 81.2811 0002760 88.6169 271.5343 14.34216563435694 IRIDIUM 135 1 43070U 17083A 26034.47508333 .00000276 00000+0 91360-4 0 9998 2 43070 86.3970 17.8865 0002203 89.0991 271.0458 14.34218241424981 IRIDIUM 138 1 43071U 17083B 26034.43068563 .00000130 00000+0 39458-4 0 9990 2 43071 86.3985 17.5801 0002541 91.6664 268.4822 14.34217524424962 IRIDIUM 116 1 43072U 17083C 26034.46873909 .00000192 00000+0 61418-4 0 9991 2 43072 86.3969 17.8768 0001904 82.4667 277.6745 14.34216908425000 IRIDIUM 130 1 43073U 17083D 26034.50679626 .00000025 00000+0 18438-5 0 9997 2 43073 86.3981 18.1234 0002121 79.9702 280.1733 14.34217425424954 IRIDIUM 151 1 43074U 17083E 26034.48142447 -.00000002 00000+0 -77512-5 0 9996 2 43074 86.3968 17.9255 0002175 86.1645 273.9799 14.34216565424973 IRIDIUM 134 1 43075U 17083F 26034.44971056 .00000242 00000+0 79294-4 0 9991 2 43075 86.3972 17.9457 0002218 83.4296 276.7153 14.34217661424932 IRIDIUM 137 1 43076U 17083G 26034.46239289 .00000320 00000+0 10716-3 0 9999 2 43076 86.3972 18.0305 0001710 90.4058 269.7333 14.34216317425005 IRIDIUM 141 1 43077U 17083H 26034.45605604 .00000024 00000+0 14444-5 0 9992 2 43077 86.3971 17.8714 0002272 89.2663 270.8793 14.34217492425006 IRIDIUM 153 1 43078U 17083J 26034.40823571 .00000361 00000+0 12167-3 0 9995 2 43078 86.4008 346.3963 0002467 85.2157 274.9320 14.34218341426102 IRIDIUM 131 1 43079U 17083K 26034.44336351 .00000137 00000+0 41839-4 0 9995 2 43079 86.3975 18.0537 0002219 90.1519 269.9931 14.34212279424932 IRIDIUM 144 1 43249U 18030A 26034.41457710 .00000104 00000+0 30179-4 0 9996 2 43249 86.4006 346.3259 0002074 82.5400 277.6031 14.34217271410960 IRIDIUM 149 1 43250U 18030B 26034.28138185 .00000205 00000+0 66156-4 0 9991 2 43250 86.4006 346.3502 0002251 86.1294 274.0160 14.34217175410968 IRIDIUM 157 1 43251U 18030C 26034.30040991 .00000087 00000+0 24181-4 0 9992 2 43251 86.4007 346.3924 0002164 86.3381 273.8063 14.34218603410944 IRIDIUM 140 1 43252U 18030D 26034.38920641 .00000139 00000+0 42609-4 0 9993 2 43252 86.4006 346.3683 0002183 83.4227 276.7217 14.34217693411014 IRIDIUM 145 1 43253U 18030E 26034.37652080 .00000323 00000+0 10815-3 0 9990 2 43253 86.4007 346.3460 0001948 78.2272 281.9143 14.34217592410944 IRIDIUM 146 1 43254U 18030F 26034.28772468 -.00000014 00000+0 -12085-4 0 9995 2 43254 86.4005 346.3960 0001935 82.3715 277.7700 14.34218676410948 IRIDIUM 148 1 43255U 18030G 26034.39554914 .00000422 00000+0 14378-3 0 9999 2 43255 86.3998 346.3929 0002044 84.9754 275.1675 14.34218174410998 IRIDIUM 142 1 43256U 18030H 26034.29406765 .00000321 00000+0 10767-3 0 9995 2 43256 86.4003 346.3282 0001938 77.5369 282.6044 14.34217677410945 IRIDIUM 150 1 43257U 18030J 26034.40188394 .00000323 00000+0 10838-3 0 9995 2 43257 86.4009 346.3944 0002185 82.8558 277.2886 14.34215813410989 IRIDIUM 143 1 43258U 18030K 26034.38286257 .00000203 00000+0 65263-4 0 9990 2 43258 86.4013 346.4899 0002093 79.7412 280.4019 14.34217045410913 IRIDIUM 161 1 43478U 18047C 26034.22182975 .00000458 00000+0 13028-3 0 9990 2 43478 86.4540 144.4732 0002310 101.4690 258.6770 14.43283512405813 IRIDIUM 152 1 43479U 18047D 26034.21604618 .00000078 00000+0 20656-4 0 9997 2 43479 86.4015 144.3360 0002276 98.7224 261.4229 14.34217509403282 IRIDIUM 147 1 43480U 18047E 26034.43169325 .00000049 00000+0 10498-4 0 9995 2 43480 86.4018 144.2489 0001931 95.1993 264.9423 14.34217731403314 IRIDIUM 110 1 43481U 18047F 26034.22873172 -.00000017 00000+0 -13035-4 0 9992 2 43481 86.4021 144.4217 0002318 106.4373 253.7078 14.34216443403274 IRIDIUM 162 1 43482U 18047G 26034.28482903 .00000465 00000+0 13217-3 0 9993 2 43482 86.4540 144.3396 0002380 92.0195 268.1279 14.43286011405812 IRIDIUM 160 1 43569U 18061A 26034.24433561 .00000330 00000+0 11090-3 0 9995 2 43569 86.3974 112.8227 0002222 100.5716 259.5730 14.34218129394177 IRIDIUM 166 1 43570U 18061B 26034.47901000 .00000083 00000+0 22508-4 0 9992 2 43570 86.3970 112.6768 0002069 95.8429 264.3003 14.34218196394237 IRIDIUM 158 1 43571U 18061C 26034.30776141 .00000291 00000+0 96950-4 0 9994 2 43571 86.3972 112.7584 0002362 93.7258 266.4208 14.34217955394175 IRIDIUM 165 1 43572U 18061D 26034.47267127 .00000297 00000+0 99082-4 0 9997 2 43572 86.3972 112.7332 0002057 95.4193 264.7237 14.34217616394228 IRIDIUM 155 1 43573U 18061E 26034.22530718 .00000102 00000+0 29365-4 0 9992 2 43573 86.3968 112.7121 0002189 92.4199 267.7247 14.34216714394153 IRIDIUM 154 1 43574U 18061F 26034.27606116 .00000307 00000+0 10262-3 0 9996 2 43574 86.3973 112.8181 0002002 96.2809 263.8614 14.34219293394218 IRIDIUM 163 1 43575U 18061G 26034.25702215 .00000310 00000+0 10359-3 0 9993 2 43575 86.3970 112.7456 0002282 96.2232 263.9224 14.34218302394184 IRIDIUM 156 1 43576U 18061H 26034.30141836 .00000152 00000+0 47367-4 0 9990 2 43576 86.3971 112.7342 0002173 90.7403 269.4042 14.34217422394189 IRIDIUM 164 1 43577U 18061J 26034.49169450 .00000360 00000+0 12144-3 0 9998 2 43577 86.3971 112.6928 0001995 98.7256 261.4166 14.34217889394258 IRIDIUM 159 1 43578U 18061K 26034.25068379 .00000296 00000+0 98800-4 0 9993 2 43578 86.3969 112.7331 0002233 99.9610 260.1837 14.34214975394184 IRIDIUM 180 1 43922U 19002A 26034.45947123 -.00000051 00000+0 -25293-4 0 9994 2 43922 86.3924 49.4855 0002224 94.4108 265.7342 14.34215860369826 IRIDIUM 176 1 43923U 19002B 26034.46652032 .00000423 00000+0 63188-4 0 9994 2 43923 86.6049 49.4451 0002461 90.2737 269.8762 14.72248050379578 IRIDIUM 168 1 43924U 19002C 26034.45313584 .00000068 00000+0 17379-4 0 9996 2 43924 86.3926 49.5614 0002262 91.3587 268.7868 14.34217920369806 IRIDIUM 173 1 43925U 19002D 26034.51021857 .00000068 00000+0 17363-4 0 9996 2 43925 86.3924 49.4320 0002347 88.6866 271.4598 14.34217594369797 IRIDIUM 169 1 43926U 19002E 26034.49650049 .00000328 00000+0 10087-3 0 9999 2 43926 86.4180 81.1023 0002801 78.0720 282.0792 14.38609378371003 IRIDIUM 172 1 43927U 19002F 26034.50387675 .00000060 00000+0 14418-4 0 9990 2 43927 86.3925 49.4422 0002263 95.2889 264.8565 14.34217411369809 IRIDIUM 175 1 43928U 19002G 26034.39390882 .00001203 00000+0 18690-3 0 9997 2 43928 86.1536 348.9224 0001334 69.2508 290.8851 14.72248557379557 IRIDIUM 171 1 43929U 19002H 26034.48484589 .00000146 00000+0 44943-4 0 9992 2 43929 86.3934 49.7418 0002066 86.9787 273.1645 14.34219187369796 IRIDIUM 170 1 43930U 19002J 26034.47270731 .00000426 00000+0 63679-4 0 9993 2 43930 86.6047 49.4458 0002351 93.0700 267.0786 14.72245968379582 IRIDIUM 167 1 43931U 19002K 26034.47849420 .00000159 00000+0 49677-4 0 9996 2 43931 86.3925 49.4740 0002104 80.9176 279.2258 14.34218430369790 IRIDIUM 181 1 56726U 23068S 26034.30072947 .00000409 00000+0 11550-3 0 9999 2 56726 86.4510 112.7788 0001982 105.3235 254.8185 14.43312706143120 IRIDIUM 177 1 56727U 23068T 26034.47139647 .00001444 00000+0 18652-3 0 9999 2 56727 86.1946 32.2718 0002682 82.9434 277.2092 14.80221079146581 IRIDIUM 174 1 56728U 23068U 26034.52829750 .00000469 00000+0 70486-4 0 9997 2 56728 86.6057 49.5566 0002526 93.1621 266.9885 14.72245689146355 IRIDIUM 178 1 56729U 23068V 26034.39292542 .00001265 00000+0 16310-3 0 9996 2 56729 86.6497 81.2925 0001996 81.7586 278.3861 14.80231101146577 IRIDIUM 179 1 56730U 23068W 26034.38754317 .00001258 00000+0 16211-3 0 9992 2 56730 86.6745 89.8819 0002258 91.0915 269.0565 14.80234941146576